SCP
0 0 0 0 0 0 0 0 0 0 0 0 0 0 0 0 0 0 0 0 0 0 0 0 0 0 0 0 0 0 0 0 0 0 0 0 0 0 0 0 0 0 0 0
0 0 0 0 0 0 0 0 0 0 0 0 0 0 0 0 0 0 0 0 0 0 0 0 0 0 0 0 0 0 0 0 0 0 0 0 0 0 0 0 0 0 0 0
0 0 0 0 0 0 0 0 0 0 0 0 0 0 0 0 0 0 0 0 0 0 0 0 0 0 0 0 0 0 0 0 0 0 0 0 0 0 0 0 0 0 0 0
0 0 0 0 0 0 0 0 0 0 0 0 0 0 0 0 0 0 0 0 0 0 0 0 0 0 0 0 0 0 0 0 0 0 0 0 0 0 0 0 0 0 0 0
0 0 0 0 0 0 0 0 0 0 0 0 0 0 0 0 0 0 0 0 0 0 0 1 1 1 0 0 0 0 0 0 0 0 0 0 0 0 0 0 0 0 0 0
0 0 0 0 0 0 0 0 0 0 0 0 0 0 0 0 0 0 0 0 0 0 0 1 1 1 1 0 0 0 0 0 0 0 0 0 0 0 0 0 0 0 0 0
0 0 0 0 0 0 0 0 0 0 0 0 0 0 0 0 0 0 0 0 0 0 0 1 1 1 1 1 0 0 0 0 0 0 0 0 0 0 0 0 0 0 0 0
0 0 0 0 0 0 0 0 0 0 0 0 0 0 0 0 0 0 0 0 0 0 0 1 1 1 1 1 1 1 1 0 0 0 0 0 0 0 0 0 0 0 0 0
0 0 0 0 0 0 0 0 0 0 0 0 0 0 0 0 0 0 0 0 0 0 0 0 1 1 1 1 1 1 1 0 0 0 0 0 0 0 0 0 0 0 0 0
0 0 0 0 0 0 0 0 0 0 0 0 0 0 0 0 0 0 0 0 0 0 0 0 0 1 1 1 1 1 1 0 0 0 0 0 0 0 0 0 0 0 0 0
0 0 0 0 0 0 0 0 0 0 0 0 0 0 0 0 0 0 0 0 0 0 0 0 0 0 1 1 1 1 0 0 0 0 0 0 0 0 0 0 0 0 0 0
0 0 0 0 0 0 0 0 0 0 0 0 0 0 0 0 0 0 0 0 0 0 0 0 0 0 1 1 1 0 0 0 0 0 0 0 0 0 0 0 0 0 0 0
0 0 0 0 0 0 0 0 0 0 0 0 0 0 0 0 0 0 0 0 0 0 0 0 0 0 0 0 0 0 0 0 0 0 0 0 0 0 0 0 0 0 0 0
0 0 0 0 0 0 0 0 0 0 0 0 0 0 0 0 0 0 0 0 0 0 0 0 0 0 0 0 0 0 0 0 0 0 0 0 0 0 0 0 0 0 0 0
0 0 0 0 0 0 0 0 0 0 0 0 0 0 0 0 0 0 0 0 0 0 0 0 0 0 0 0 0 0 0 0 0 0 0 0 0 0 0 0 0 0 0 0
0 0 0 0 0 0 0 0 0 0 0 0 0 0 0 0 0 0 0 0 0 0 0 0 0 0 0 0 0 0 0 0 0 0 0 0 0 0 0 0 0 0 0 0
0 0 0 0 0 0 0 0 0 0 0 0 0 0 0 0 0 0 0 0 0 0 0 0 0 0 0 0 0 0 0 0 0 0 0 0 0 0 0 0 0 0 0 0
0 0 0 0 0 0 0 0 0 0 0 0 0 0 0 0 0 0 0 0 0 0 0 0 0 0 0 0 0 0 0 0 0 0 0 0 0 0 0 0 0 0 0 0
0 0 0 0 0 0 0 0 0 0 0 0 0 0 0 0 0 0 0 0 0 0 0 0 0 0 0 0 0 0 0 0 0 0 0 0 0 0 0 0 0 0 0 0
0 0 0 0 0 0 0 0 0 0 0 0 0 0 0 0 0 0 0 0 0 0 0 0 0 0 0 0 0 0 0 0 0 0 0 0 0 0 0 0 0 0 0 0
0 0 0 0 0 0 0 0 0 0 0 0 0 0 0 0 0 0 0 0 0 0 0 0 0 0 -0 -0 0 0 0 0 0 0 0 0 0 0 0 0 0 0 0 0
0 0 0 0 0 0 0 0 0 0 0 0 0 0 0 0 0 0 0 0 0 0 0 0 -0 0 0 0 0 0 0 0 0 0 0 0 0 0 0 0 0 0 0 0
0 0 0 0 0 0 0 0 0 0 0 0 0 0 0 0 0 0 -0 0 0 0 0 0 0 0 0 0 0 0 0 0 0 0 0 0 0 0 0 0 0 0 0 0
0 0 0 0 0 0 0 0 0 0 0 0 0 0 0 0 0 -0 -0 0 0 0 0 0 0 0 0 0 0 0 0 0 0 0 0 0 0 0 0 0 0 0 0 0
0 0 0 0 0 0 0 0 0 0 0 0 0 0 0 0 0 0 0 0 0 0 0 0 0 0 0 0 0 0 0 0 0 0 0 0 0 0 0 0 0 0 0 0
0 0 0 -0 -0 -0 -0 0 0 0 0 0 0 0 0 0 0 0 0 0 0 0 0 0 0 0 0 0 0 0 0 0 0 0 0 0 0 0 0 0 0 0 0 0
0 0 0 0 0 0 0 -0 -0 0 0 0 0 0 0 0 0 0 0 0 0 0 0 0 0 0 0 0 0 0 0 0 0 0 0 0 0 0 0 0 0 0 0 0
Wind_Speed
4 3 3 4 5 6 6 8 7 7 7 10 8 8 8 10 10 12 13 15 16 16 14 13 13 13 13 13 12 12 11 11 10 9 8 8 8 8 7 7 8 7 6 5
2 1 2 4 6 7 7 6 6 6 8 8 5 3 5 8 12 13 14 16 17 17 16 16 16 15 14 13 13 12 13 12 10 9 9 9 9 8 8 7 6 6 6 6
2 3 2 3 5 5 3 3 6 7 8 4 3 5 7 9 11 13 14 15 17 18 17 17 16 16 16 15 13 13 13 12 11 11 11 10 10 9 9 8 7 6 7 7
1 1 4 6 3 3 3 1 2 3 3 2 5 6 6 6 10 12 13 14 16 16 16 15 15 15 14 14 14 14 13 13 12 12 11 10 9 9 9 7 7 7 7 7
3 2 4 5 2 1 2 2 3 2 2 3 2 2 2 5 8 10 11 11 13 14 15 14 15 15 14 14 14 14 14 13 13 13 12 11 11 10 9 7 7 7 6 7
3 3 4 5 3 2 2 2 3 1 0 0 3 2 5 4 5 5 6 7 9 11 11 13 14 14 15 15 15 16 16 15 13 13 13 13 12 10 7 7 8 7 7 7
3 3 5 3 4 1 3 5 3 2 0 1 2 5 6 3 3 4 5 5 7 9 10 12 13 14 14 14 15 15 13 12 12 13 12 11 10 8 7 7 7 7 7 6
1 3 6 3 2 2 4 2 2 2 1 1 1 2 2 0 3 5 4 4 5 7 7 8 11 13 13 13 12 10 10 11 12 12 11 10 9 8 8 8 7 7 6 6
3 4 4 1 1 2 2 1 2 1 1 2 2 2 2 2 4 5 5 5 5 6 6 5 7 10 12 10 8 9 10 10 10 10 10 9 10 9 7 7 7 6 6 6
2 4 3 2 1 0 1 1 2 2 2 3 3 2 2 4 5 5 5 4 5 6 6 5 5 7 8 7 9 10 10 9 8 8 7 7 7 7 7 7 7 6 6 6
2 3 2 3 1 1 2 4 4 4 4 4 5 5 5 5 6 6 5 5 5 6 5 4 4 4 4 6 8 9 9 8 8 7 8 7 6 6 7 7 8 8 6 6
5 5 3 2 1 2 3 3 4 5 7 7 5 6 6 5 5 6 6 5 6 6 5 4 4 4 3 5 7 8 7 6 5 5 5 5 5 3 4 4 7 8 7 6
3 2 2 1 3 4 4 3 5 7 8 8 7 7 7 6 6 6 7 7 6 5 5 5 5 5 3 4 6 7 6 6 4 4 4 4 4 5 3 1 1 4 5 6
2 4 4 3 3 4 4 5 6 8 8 8 7 7 7 8 8 8 7 6 6 7 7 6 6 5 3 4 6 6 5 6 5 4 4 4 4 4 4 3 2 0 2 4
3 4 4 4 5 5 5 6 8 8 8 8 7 8 8 8 8 7 5 6 7 9 8 7 6 4 3 4 6 5 5 4 4 4 3 3 3 4 4 4 3 2 1 0
3 5 6 6 6 6 7 7 7 7 7 8 7 7 7 8 8 7 7 7 8 8 6 6 5 4 4 5 5 4 3 5 5 4 4 4 4 4 4 3 3 2 2 1
5 4 5 6 7 7 7 7 7 6 7 7 7 6 7 8 8 8 7 6 7 6 5 5 4 4 5 5 5 3 3 4 5 4 4 4 4 3 3 3 3 2 2 3
5 5 6 7 7 8 7 7 7 7 7 7 7 7 8 8 7 6 6 6 8 8 7 5 4 5 5 5 4 3 3 3 3 3 2 3 3 2 2 2 2 2 1 1
7 8 8 9 8 8 7 7 7 7 7 7 8 8 7 7 7 6 6 7 8 7 6 6 7 6 5 5 5 4 4 4 3 2 2 3 2 2 2 2 2 2 1 1
9 9 10 10 9 8 7 7 7 7 7 7 8 8 8 6 6 6 7 7 4 2 2 4 5 5 4 4 5 3 3 3 2 2 2 2 2 1 2 2 2 1 1 1
9 8 9 9 8 7 7 7 7 7 7 7 8 7 6 5 5 6 6 5 4 3 4 5 4 3 3 3 4 3 2 2 2 2 2 2 2 2 2 2 2 2 1 0
8 8 8 8 8 6 5 6 6 7 7 7 7 7 6 6 6 5 4 2 1 3 3 3 3 4 5 5 4 3 3 3 3 3 3 3 3 2 2 2 1 1 1 1
6 6 7 6 6 5 5 5 5 6 6 6 6 5 5 4 3 4 2 1 1 3 3 2 4 6 6 4 4 4 4 4 4 3 3 3 2 2 2 2 1 1 1 1
5 6 6 6 7 8 7 6 6 5 5 5 4 4 4 3 2 1 1 1 3 3 3 3 6 7 6 3 3 3 3 3 3 2 2 2 2 2 1 1 1 1 1 1
6 6 7 8 7 5 5 6 6 6 5 4 4 3 2 2 2 1 1 2 2 3 2 3 5 6 4 2 3 3 2 2 2 2 2 2 2 2 1 1 1 1 1 1
5 5 5 5 4 4 4 5 4 4 4 4 4 3 3 2 3 2 2 2 3 3 2 2 2 3 3 3 3 3 2 2 3 3 2 2 2 2 2 2 2 2 2 2
6 5 5 5 5 5 4 4 4 4 3 3 3 3 3 4 3 3 3 3 3 2 2 2 2 2 2 2 2 2 2 2 2 2 2 2 2 2 2 2 2 2 2 2
Wind_Direction
228 232 192 218 217 187 178 184 194 222 230 246 232 209 198 185 182 177 177 180 181 183 182 181 179 178 178 178 176 174 172 175 180 179 176 172 171 173 173 173 176 174 175 182
313 280 246 259 256 230 217 203 213 217 244 251 242 194 191 183 180 180 186 187 187 186 184 183 182 181 180 180 179 175 178 183 180 175 176 178 178 177 176 179 178 176 182 185
280 306 17 257 240 220 211 206 193 208 231 258 224 206 203 192 187 187 191 189 188 188 186 186 185 182 183 183 178 178 182 183 182 180 181 184 182 176 181 185 182 184 191 190
173 48 236 243 269 227 187 268 263 228 256 255 226 217 213 199 190 194 190 188 189 188 187 186 183 182 182 178 179 182 185 186 185 183 184 183 181 183 187 184 187 191 196 197
148 186 270 291 288 149 133 306 318 283 295 292 286 90 271 228 201 193 189 189 189 187 185 182 182 179 176 179 182 185 188 188 187 185 184 184 188 190 188 184 191 195 196 196
153 176 226 248 269 257 126 270 332 345 294 293 72 136 247 237 202 186 180 178 180 179 177 180 183 176 177 182 184 191 192 190 186 184 185 188 191 191 186 187 195 195 201 203
188 214 251 252 288 309 160 229 298 327 229 126 167 215 250 254 185 164 163 166 164 166 176 184 178 174 181 184 192 194 187 183 183 185 186 187 187 184 181 184 188 195 205 213
166 206 245 319 354 172 203 256 313 349 32 133 251 305 330 19 137 129 122 126 140 155 172 174 170 170 177 188 191 178 173 177 182 184 186 187 182 184 184 182 187 199 209 225
202 226 254 278 233 244 203 213 306 309 331 108 105 32 21 67 92 107 118 120 126 133 140 149 165 170 182 193 173 166 170 179 182 184 187 180 179 185 183 185 192 202 207 221
241 253 269 295 290 294 58 5 308 330 14 73 91 83 75 79 79 78 86 100 108 116 124 142 163 174 179 173 167 163 170 176 177 177 181 179 179 181 183 190 196 201 206 214
242 256 316 320 298 72 53 28 18 22 45 71 80 70 74 79 83 84 82 85 96 106 121 137 144 153 156 157 159 165 172 175 175 178 178 181 184 188 188 196 195 196 204 200
218 222 184 244 13 76 70 45 28 41 43 44 68 84 86 86 86 87 84 85 89 95 102 107 112 114 120 139 152 156 156 160 164 166 167 170 172 175 187 184 195 200 203 200
210 168 147 128 80 71 75 64 60 64 64 59 53 71 82 83 80 82 81 80 81 83 89 94 101 102 109 124 133 139 145 150 152 156 158 160 157 161 164 164 185 208 211 213
86 91 72 55 82 85 88 79 77 74 67 64 60 61 71 80 76 74 73 75 81 79 73 75 81 78 83 110 117 121 125 130 133 140 146 149 154 160 159 155 147 225 238 217
76 97 113 94 71 83 95 90 83 81 78 70 66 68 71 77 78 75 69 69 73 72 68 68 68 54 52 90 103 110 116 121 122 124 128 131 133 132 133 142 152 157 118 94
85 84 87 82 80 85 93 90 87 83 83 80 74 71 74 77 76 69 62 66 74 67 59 62 58 42 53 78 90 91 99 110 116 119 115 113 120 128 137 145 149 153 160 179
102 101 105 95 87 86 90 94 96 92 88 86 82 80 80 79 72 66 62 64 73 70 59 56 49 42 54 69 81 83 80 83 85 92 104 116 123 136 148 149 153 168 198 201
102 105 108 111 108 98 88 86 86 85 86 87 84 81 77 77 75 68 61 62 62 52 38 30 41 55 55 58 63 65 70 71 75 83 89 98 113 127 133 137 153 174 217 226
80 82 83 84 91 97 95 90 85 82 81 81 83 84 83 82 82 79 71 65 59 49 18 15 37 51 52 58 73 73 75 75 74 77 87 96 95 97 111 128 144 160 165 147
68 79 83 81 78 83 86 85 85 80 78 83 85 81 77 74 79 80 77 69 55 43 22 41 49 47 43 48 61 77 82 89 97 92 85 88 96 99 102 109 121 119 107 108
57 68 77 80 74 71 78 82 84 82 79 85 89 90 87 79 75 77 79 66 18 22 49 56 54 40 33 36 50 59 64 70 81 90 100 105 101 88 79 80 83 86 92 92
53 64 72 78 76 67 65 75 84 86 83 85 86 87 84 77 74 72 71 87 57 51 57 47 44 43 39 42 49 51 53 58 65 75 81 84 86 79 72 70 65 63 65 57
57 64 67 71 75 71 64 70 80 87 88 88 91 96 97 95 98 100 81 330 48 60 59 47 47 47 44 47 46 49 50 53 59 67 76 82 85 90 90 76 68 64 49 33
63 59 57 58 62 61 56 51 59 69 80 85 88 96 102 92 63 62 130 95 68 57 45 34 42 44 46 49 46 50 52 58 61 64 67 68 67 65 65 64 60 51 44 21
60 57 58 62 58 51 48 52 53 49 54 52 49 55 65 90 110 109 97 86 70 62 42 35 48 49 50 48 52 55 54 50 54 54 49 51 51 49 44 44 43 31 10 349
64 62 62 65 64 55 50 53 54 45 46 45 36 33 36 41 59 65 67 62 58 58 49 33 43 49 48 49 47 50 49 43 46 46 45 43 37 36 37 29 16 13 1 353
55 56 57 51 44 44 54 60 58 46 43 51 40 23 29 35 41 42 46 48 45 40 38 36 45 57 58 54 50 46 45 45 46 49 48 48 42 30 19 17 11 6 7 14